GFSWCAN_sfc_30mbdewp_000.txt.gz
Dewpoint
37 39 39 38 37 38 37 35 37 37 37 37 37 37 36 39 41 44 42 47 45 42 42 41 41 40 40 39 36 40 38 40 39 35 34 34 33 32 31 30 33 31 29 29 30 28 24 33 35 31 30 31 31 35
37 39 39 38 38 38 38 38 38 37 37 37 36 37 36 37 41 44 40 43 46 45 42 45 44 43 42 41 40 41 39 40 40 38 37 37 35 33 32 28 35 32 32 30 30 28 31 33 32 34 33 32 32 33
39 40 38 38 38 37 37 37 37 37 37 37 37 38 36 37 39 42 41 42 42 44 42 43 41 44 46 45 45 40 42 42 43 45 40 37 35 35 32 31 33 35 36 34 33 32 34 33 35 34 34 33 34 34
39 39 37 38 37 37 36 37 37 37 37 37 37 35 36 37 39 41 40 41 40 42 39 38 45 43 47 47 46 45 45 46 46 45 42 38 35 36 33 34 34 35 36 34 33 34 32 32 34 33 34 34 34 34
40 37 39 38 37 36 36 36 35 35 34 34 34 34 35 37 39 41 41 41 41 41 39 41 43 45 47 46 46 46 45 44 43 41 40 39 37 36 36 35 33 35 35 34 32 34 33 32 34 33 33 33 32 32
39 38 39 37 37 36 36 35 34 33 33 34 33 33 34 36 39 40 37 46 47 47 42 37 44 44 46 46 45 45 45 44 43 42 42 43 42 39 36 34 36 35 35 36 35 33 33 34 33 33 32 32 31 31
39 37 38 38 37 36 36 35 34 34 33 32 34 33 34 35 38 36 36 42 43 43 42 37 37 44 45 44 44 45 46 44 44 41 42 43 42 42 39 35 36 36 36 33 34 33 33 33 33 33 32 32 32 30
39 36 37 36 37 36 36 35 35 33 31 32 34 35 36 38 38 38 40 42 43 41 44 38 37 40 45 42 41 46 43 44 44 42 42 40 40 40 37 37 37 35 34 33 33 33 33 33 33 32 31 30 29 29
37 35 37 37 36 36 36 36 35 33 34 37 36 38 42 38 35 39 40 42 44 44 38 38 34 32 44 42 42 43 43 39 43 40 40 40 38 36 37 37 36 34 34 32 32 32 32 32 31 31 30 28 27 28
39 34 38 36 36 37 37 36 33 33 35 34 37 33 34 35 39 40 43 42 42 43 42 38 38 36 40 41 40 40 39 38 35 38 39 37 36 38 38 36 36 35 32 31 30 30 30 30 30 29 28 28 28 28
39 34 35 36 37 37 37 35 33 34 34 34 31 31 36 39 38 40 37 37 38 36 40 39 37 37 41 38 38 38 36 35 32 33 35 34 33 36 36 38 37 34 32 32 32 31 31 31 29 28 27 27 26 26
38 36 35 36 37 37 35 33 35 34 33 34 34 37 36 33 32 31 32 35 35 32 37 37 37 37 39 39 37 36 34 33 30 32 33 30 32 33 33 37 35 33 32 31 31 30 30 29 27 26 25 24 24 24
37 37 36 36 37 35 35 35 34 34 36 36 33 30 29 30 27 29 27 31 32 36 37 37 36 36 36 36 34 34 33 30 31 30 29 30 32 31 32 34 34 32 32 30 29 28 26 26 26 25 25 25 23 22
37 37 37 37 36 35 36 35 33 37 37 28 26 23 25 26 29 30 29 31 32 34 37 35 34 34 34 34 32 32 32 31 27 26 25 27 27 28 32 33 32 31 29 27 26 26 26 26 26 26 25 24 23 22
37 37 37 35 34 36 35 33 36 39 33 27 27 23 26 31 32 32 33 32 34 37 35 33 33 32 31 31 29 30 28 26 27 25 26 26 26 30 32 31 30 28 26 26 26 25 25 26 26 26 26 25 24 23
37 36 31 34 36 35 33 36 37 36 32 29 27 26 29 28 27 30 32 32 34 37 35 34 31 30 30 29 28 27 26 24 24 27 27 26 28 30 30 29 27 26 26 26 25 25 25 25 25 25 25 24 22 21
36 33 34 36 36 34 35 34 32 30 27 25 28 30 29 27 29 30 31 33 36 36 34 31 30 29 27 27 27 26 26 26 27 25 27 27 29 29 28 27 26 26 25 25 25 24 24 25 24 23 22 19 17 16
33 34 36 37 34 32 28 31 28 26 23 26 25 25 27 28 27 29 32 36 35 35 34 31 28 27 26 26 25 26 26 27 28 28 27 28 27 27 27 26 25 25 25 24 23 23 24 23 22 19 18 16 15 13
36 36 37 34 32 29 25 26 30 22 23 24 26 26 26 27 28 29 30 34 35 36 34 31 28 26 27 26 25 24 23 26 27 28 26 26 26 26 25 25 24 24 23 23 23 22 21 20 18 17 15 14 12 11
37 35 34 32 33 26 22 23 26 24 21 23 24 24 25 25 26 28 30 31 32 32 31 30 30 26 26 27 26 27 28 26 27 27 26 25 24 24 24 24 23 23 21 20 19 17 16 15 14 14 13 12 11 12
32 32 32 28 28 26 24 23 22 22 23 22 23 21 22 22 26 29 30 30 30 31 31 31 30 28 27 27 28 28 28 27 28 27 26 24 24 24 24 23 22 21 20 19 17 18 16 14 13 15 14 11 9 8
30 31 26 22 22 19 22 25 22 21 20 21 21 18 20 20 22 24 26 25 27 23 24 24 25 25 26 26 27 27 28 29 28 27 26 26 24 24 24 23 21 20 19 19 18 15 14 15 14 12 10 10 10 10
28 23 17 15 15 11 12 15 19 18 16 17 17 18 18 20 21 22 23 22 22 22 22 23 22 26 25 27 29 28 28 27 26 26 26 25 25 25 24 23 23 21 19 18 17 16 16 16 14 12 11 10 10 10
21 17 14 12 11 4 11 11 12 14 16 17 16 15 14 18 20 21 19 18 17 19 17 16 18 20 26 27 26 26 27 26 25 24 25 24 24 24 24 23 22 21 19 18 17 18 16 14 14 11 10 10 7 3
18 12 11 5 7 8 5 7 10 12 11 13 13 13 16 19 18 17 17 14 11 14 15 14 15 16 16 22 24 25 27 26 24 24 24 23 21 21 20 20 19 19 19 19 17 17 16 13 12 12 10 7 5 3
13 9 6 5 4 5 2 -2 6 8 10 9 12 13 13 17 16 14 14 11 11 12 12 11 11 11 13 17 20 22 23 26 24 22 21 21 21 21 20 19 19 19 20 19 19 16 14 13 11 10 9 9 7 2
10 9 10 13 12 12 11 12 12 11 8 9 12 13 13 12 12 13 13 12 10 10 11 12 12 12 13 15 20 21 22 23 23 22 24 25 25 23 21 20 19 18 19 18 17 15 13 11 10 10 10 8 4 2
16 13 9 14 15 10 7 8 8 7 9 12 13 10 11 11 11 10 7 9 8 8 10 11 14 16 16 18 19 19 19 20 20 20 20 20 21 22 22 22 22 22 20 18 15 13 12 11 10 9 5 2 2 2
18 15 13 12 11 11 10 5 3 9 12 11 11 11 11 10 7 6 6 7 8 9 10 13 15 17 17 18 19 19 19 20 19 18 15 14 15 17 21 21 21 21 19 18 17 16 13 10 7 4 3 2 1 0
17 16 13 10 10 7 7 9 10 11 12 10 10 10 9 8 7 6 8 8 8 9 11 14 17 17 16 16 15 16 17 20 23 18 15 14 14 17 19 19 19 19 19 18 17 16 15 10 8 4 2 2 0 -2
16 14 12 10 10 7 6 6 8 12 8 9 6 9 8 8 8 8 9 9 9 10 14 15 15 16 17 17 17 16 15 16 18 18 17 17 17 17 17 18 19 19 17 14 12 9 6 3 2 1 -2 -2 -0 -2
14 13 12 11 10 5 5 7 7 8 5 7 8 4 7 8 9 9 9 10 13 13 15 14 13 12 14 16 17 19 18 17 17 17 16 16 16 16 16 16 16 13 9 7 5 4 3 1 0 -0 -1 -3 -4 -5
9 7 4 7 8 7 6 7 6 8 5 7 7 5 5 8 10 9 10 12 11 12 12 12 13 14 14 15 15 16 17 17 19 19 19 18 16 14 12 10 9 7 5 4 3 2 0 -1 -1 -2 -4 -5 -5 -5

GFSWCAN_sfc_30mbdewp_003.txt.gz
Dewpoint
37 37 39 38 38 38 37 37 37 37 37 38 37 37 39 38 38 42 40 44 39 39 42 42 42 39 40 39 36 39 39 40 39 34 34 34 31 32 31 29 32 30 30 28 30 28 24 33 36 33 30 31 32 36
37 39 40 37 39 37 37 36 37 37 37 37 37 38 37 37 37 41 38 41 42 39 42 45 44 44 43 41 40 41 39 39 39 37 37 37 35 32 31 27 34 31 31 30 31 27 30 33 33 33 34 32 33 34
38 39 40 37 39 37 37 36 36 35 34 34 34 34 35 35 37 40 40 41 37 41 41 42 41 44 46 45 45 40 42 42 42 45 41 37 36 35 31 31 32 35 36 34 33 32 33 34 33 34 34 33 34 34
38 40 40 39 39 37 37 36 35 35 34 33 33 34 35 35 36 39 40 41 37 35 38 37 44 43 47 47 46 45 44 46 46 45 39 38 36 36 33 33 34 35 36 34 33 34 34 34 33 34 34 34 33 32
39 40 39 38 38 37 37 37 36 35 34 34 34 34 35 35 36 39 40 41 41 35 37 40 43 45 47 46 46 46 45 44 43 41 39 37 38 36 35 35 33 35 35 33 32 35 34 33 34 34 33 32 32 31
38 40 38 36 37 37 36 37 36 36 35 34 33 32 35 35 36 38 35 43 43 43 39 37 44 44 46 46 45 45 45 45 43 41 39 41 42 37 35 34 36 35 36 36 35 34 33 34 34 33 32 32 32 31
38 40 35 35 38 37 36 36 36 36 36 34 34 35 36 36 37 35 34 41 43 42 39 37 36 44 46 45 45 44 46 44 43 41 39 41 43 43 40 36 36 37 38 35 35 34 33 34 33 33 32 32 31 29
39 40 38 34 38 37 35 35 36 36 35 34 36 37 37 39 39 37 41 43 43 40 41 36 35 38 45 41 41 45 43 44 44 41 43 41 41 40 37 38 38 36 35 34 33 34 34 34 33 32 31 30 29 28
39 40 39 34 37 36 37 37 37 37 34 36 36 38 42 39 36 37 39 40 44 41 38 37 32 31 44 42 42 43 44 39 43 40 40 40 38 36 37 38 37 36 35 34 32 33 33 33 32 31 30 29 28 27
39 40 39 35 34 35 37 37 36 34 35 34 35 33 33 34 39 40 42 39 39 41 42 38 36 35 39 40 40 40 40 38 34 38 39 36 37 38 38 39 37 36 34 32 32 31 31 31 31 30 29 28 27 27
38 40 38 36 36 35 37 36 35 35 34 33 31 31 36 39 39 38 34 36 37 36 39 39 37 36 41 37 38 38 35 35 32 33 35 34 33 36 35 37 38 35 33 32 32 32 32 32 31 28 28 28 28 28
38 40 37 37 36 37 37 35 36 34 33 35 35 37 37 33 32 29 31 35 35 32 38 37 37 37 39 39 38 37 34 34 30 31 32 30 32 33 32 35 37 34 32 32 31 31 32 31 29 28 27 27 27 25
38 40 38 37 37 37 35 36 35 33 38 35 31 28 29 30 27 27 27 31 33 35 37 37 36 37 37 36 35 34 33 31 31 30 28 30 31 31 32 33 34 32 32 30 30 30 29 27 27 26 25 25 24 22
39 40 38 38 37 36 36 35 34 36 35 26 25 23 26 26 27 29 29 30 33 34 35 36 35 34 34 34 33 32 32 31 27 25 25 27 28 28 30 32 33 31 30 28 27 27 27 26 25 25 24 23 22 21
40 39 38 36 36 37 36 34 37 39 32 26 25 23 26 29 30 31 32 32 34 35 36 34 33 33 32 32 30 31 28 26 27 26 26 27 27 28 31 32 31 29 27 26 26 26 26 26 25 24 23 22 21 20
40 38 33 34 37 37 34 36 36 37 31 28 25 24 27 25 24 27 29 30 36 36 36 34 32 31 31 31 29 28 27 24 24 28 28 26 28 30 31 30 29 27 26 26 26 26 26 25 24 23 23 22 21 20
39 33 35 37 38 35 34 33 31 28 26 25 25 29 27 25 25 26 28 31 36 35 34 34 31 31 28 28 28 28 27 27 28 28 25 28 29 29 29 28 27 26 26 25 26 26 25 25 23 22 20 20 19 17
36 33 35 38 35 32 28 29 26 24 22 25 24 25 27 27 26 26 28 31 31 31 32 31 29 28 27 28 27 28 28 27 27 28 28 27 28 28 28 27 26 26 25 25 25 25 25 23 22 20 19 17 16 14
37 36 37 35 33 29 24 26 27 21 21 23 24 25 25 25 27 27 28 30 32 34 32 31 29 28 27 25 25 25 24 25 27 28 27 26 27 27 27 26 25 24 24 24 25 24 24 22 20 19 17 16 14 13
38 36 35 33 33 26 21 22 26 23 20 22 23 22 23 23 25 25 26 29 31 30 30 29 30 29 27 27 26 26 28 27 27 27 27 26 25 25 25 25 24 24 23 22 21 20 18 18 17 16 15 14 13 12
31 33 31 29 27 26 23 22 22 22 22 20 21 21 20 22 22 24 27 28 28 28 30 29 26 25 27 28 29 28 28 28 27 27 27 26 24 24 24 23 23 22 21 20 18 19 18 16 14 16 16 12 10 9
31 31 26 23 23 21 22 24 22 21 19 18 19 18 18 19 20 22 23 23 25 23 23 22 22 21 21 23 26 28 29 28 28 28 27 27 25 24 23 23 22 21 20 19 19 17 15 15 15 12 11 11 10 11
28 23 18 17 17 13 13 16 16 18 15 16 15 16 17 17 18 18 21 21 21 21 20 20 19 21 21 24 28 29 30 28 27 27 27 26 26 25 24 23 23 21 20 19 18 17 15 15 14 11 12 10 10 11
22 19 16 13 12 6 11 11 12 14 15 16 15 13 13 15 17 19 19 18 18 17 16 15 15 16 17 21 23 25 26 28 27 26 26 25 25 25 24 23 22 22 20 18 18 17 16 13 14 11 11 11 7 3
19 14 12 8 8 9 6 8 10 13 10 12 14 7 14 16 16 16 15 15 11 13 13 12 12 12 13 15 18 21 25 26 25 25 26 26 24 23 22 21 20 20 20 19 18 16 16 14 13 12 10 8 6 5
15 11 6 5 6 6 2 -2 5 8 10 7 8 11 11 15 14 13 14 12 12 11 11 9 9 10 11 12 15 16 19 23 24 24 24 25 24 23 21 20 19 19 20 19 18 16 15 15 13 11 9 9 8 5
14 12 9 11 10 9 9 11 11 9 5 0 9 13 12 12 11 12 12 12 11 9 10 8 9 9 10 12 13 17 21 22 21 24 25 26 26 24 23 21 20 20 21 21 20 18 16 14 13 11 11 9 7 7
18 13 9 14 15 10 6 8 8 3 5 10 12 11 8 9 10 11 11 8 9 7 7 8 9 10 11 14 16 18 19 20 21 22 22 22 23 25 25 23 24 24 23 22 20 19 17 14 12 10 8 7 7 6
18 14 13 12 11 11 10 5 1 6 11 12 10 9 9 10 9 8 7 6 6 7 8 8 10 12 15 17 18 19 19 19 18 18 18 16 17 19 23 24 24 23 23 22 21 17 14 12 10 10 9 6 4 2
17 14 12 10 10 7 7 9 9 9 11 10 10 11 10 9 8 5 6 7 8 9 8 9 10 13 14 16 15 16 17 19 20 20 17 16 16 20 21 21 21 21 21 20 20 19 18 14 12 7 4 2 1 0
16 13 12 11 10 7 6 5 8 11 8 9 5 9 9 8 8 6 7 8 8 9 10 12 13 13 13 15 16 15 15 17 20 21 19 19 19 19 20 20 21 21 20 18 15 14 12 9 7 4 1 -1 2 -0
15 14 13 11 10 5 4 6 6 8 5 7 8 3 6 7 9 8 8 9 10 11 12 12 11 11 14 15 16 19 19 17 18 19 18 18 18 18 18 18 18 17 16 14 13 11 8 6 5 3 2 1 -0 -0
8 7 5 8 8 8 6 6 6 7 5 7 6 4 5 7 9 8 7 10 10 11 11 12 13 15 16 16 16 17 17 18 19 19 19 18 18 17 16 16 16 15 12 9 7 5 3 2 1 -0 -1 -3 -3 -0

GFSWCAN_sfc_30mbdewp_006.txt.gz
Dewpoint
36 36 38 40 37 38 37 37 37 36 34 34 35 35 35 36 36 40 41 42 37 35 37 43 41 39 40 38 35 39 38 40 39 34 33 32 32 31 31 30 31 29 30 29 30 27 26 32 35 30 32 33 33 35
36 37 39 39 37 38 37 37 36 35 35 34 33 33 34 35 36 38 37 43 41 37 40 46 45 44 42 41 40 41 39 39 38 36 36 36 33 34 32 28 33 30 32 30 30 29 31 33 34 35 34 34 34 35
36 37 40 40 39 37 37 37 36 36 35 34 33 33 34 33 34 36 38 41 37 36 42 42 41 45 46 45 46 40 41 42 42 44 41 38 35 37 32 32 32 34 36 35 34 33 33 34 35 35 34 34 34 37
36 38 39 40 38 36 38 36 37 36 36 35 34 34 33 34 35 36 37 39 37 35 33 38 44 43 47 47 46 45 44 45 45 45 39 37 36 37 35 34 34 35 36 35 34 35 35 34 34 34 34 33 33 34
36 37 39 40 36 36 38 36 36 35 35 35 35 35 34 35 36 37 38 39 40 35 33 39 43 45 46 46 46 46 45 44 43 40 39 36 38 37 36 35 34 36 35 32 30 35 34 34 34 34 33 32 31 30
36 37 39 39 35 35 37 35 35 36 35 35 36 35 35 35 36 37 35 43 43 40 34 36 44 43 44 45 45 45 45 44 44 41 39 39 41 38 36 35 36 35 36 36 35 34 34 34 34 34 33 32 31 30
36 37 39 40 37 34 36 34 35 35 35 35 35 34 35 36 38 33 33 40 41 41 35 37 36 44 46 45 45 43 45 45 43 41 40 39 40 42 39 34 36 38 37 36 36 34 34 34 33 33 33 32 30 28
36 37 39 40 38 34 35 35 35 35 35 34 34 34 36 40 38 36 38 41 43 39 39 36 35 38 45 41 40 44 43 43 43 41 42 41 41 41 37 39 39 38 36 36 35 34 34 34 33 32 31 30 28 27
36 37 39 40 39 36 35 35 36 35 35 34 35 37 40 37 35 38 40 41 43 39 36 37 32 31 44 42 42 43 44 39 42 40 40 40 37 35 38 39 39 38 37 36 34 34 34 33 32 31 31 30 29 27
36 37 39 40 37 36 36 35 36 35 35 34 35 34 33 35 38 40 40 37 38 39 39 37 36 35 39 39 40 39 40 38 35 37 39 36 36 39 39 40 40 38 36 34 33 32 33 32 32 31 31 30 28 26
36 37 38 40 38 37 37 36 35 36 35 35 32 31 35 39 38 38 32 33 35 35 39 39 37 36 41 36 37 39 36 36 33 34 35 34 34 36 36 35 37 38 36 34 33 34 34 33 31 30 29 28 27 26
36 37 39 40 38 37 35 36 36 35 33 33 35 38 37 33 32 31 31 34 34 32 38 37 37 37 39 40 38 37 35 34 30 32 32 30 33 34 32 33 35 36 34 33 32 32 33 33 31 29 28 28 27 25
36 37 39 39 38 38 36 36 35 35 38 34 31 28 29 30 27 27 24 29 32 34 36 37 37 38 38 37 36 35 33 31 32 31 29 32 33 32 30 33 34 33 33 32 31 32 32 30 29 28 28 26 25 23
36 38 40 39 38 36 37 35 35 37 33 27 25 24 26 25 27 28 28 29 33 33 35 36 36 35 35 35 34 32 32 32 28 26 27 30 29 28 29 32 33 32 31 30 30 29 29 29 28 27 27 25 23 21
37 39 40 38 36 37 36 34 36 38 30 26 26 23 25 27 29 31 31 31 33 35 35 35 34 33 33 33 31 32 29 27 27 26 29 29 28 28 31 32 32 30 29 29 29 28 28 27 26 26 25 24 22 20
38 39 35 35 37 38 34 35 35 36 30 28 26 25 27 25 24 26 27 28 35 35 35 35 34 32 33 32 29 29 28 26 26 30 31 28 28 30 31 31 30 29 27 27 27 27 26 25 24 23 22 21 20 18
38 36 34 36 38 34 35 31 30 26 25 25 25 29 29 26 24 26 26 27 32 32 32 33 31 32 29 29 28 30 28 29 30 30 27 28 29 30 30 29 28 27 27 27 27 26 25 24 23 21 20 20 18 17
38 34 36 37 35 31 28 29 26 24 22 25 24 25 26 27 26 26 28 29 27 29 30 30 30 28 28 28 29 27 27 27 28 28 28 28 28 28 29 28 27 27 26 27 26 26 25 23 22 21 20 19 18 16
38 36 37 36 32 27 23 26 26 20 21 23 24 24 24 25 26 27 26 28 29 31 31 30 28 28 28 26 26 27 27 27 27 27 27 27 27 27 28 27 26 26 26 27 26 25 24 22 20 19 18 18 16 15
41 38 35 34 31 24 20 22 26 22 20 22 23 22 22 22 23 24 24 26 29 29 28 28 29 28 26 26 27 27 27 28 28 27 27 27 26 26 26 26 25 26 26 26 25 22 20 19 18 18 18 16 15 14
33 34 31 30 27 25 22 21 22 22 22 20 21 20 20 21 20 22 24 26 26 24 26 26 24 23 23 23 25 28 27 28 28 28 27 27 27 25 25 25 25 24 24 23 22 21 20 18 17 18 19 15 13 11
31 31 25 24 22 22 22 24 22 21 19 18 19 18 17 18 19 20 21 22 23 24 22 21 21 21 19 19 21 24 27 28 29 29 29 29 27 25 24 24 24 23 23 22 21 20 17 17 17 14 13 12 11 13
28 24 20 19 16 15 14 17 18 18 14 15 15 14 16 17 19 17 20 22 22 21 20 19 17 16 16 17 20 25 27 27 27 27 28 27 27 26 25 25 25 24 23 22 21 18 18 17 16 13 13 12 12 12
22 19 17 14 13 8 11 12 13 14 14 15 14 8 13 14 16 18 18 19 18 19 17 14 13 12 12 14 14 16 20 22 24 25 28 27 26 26 25 24 23 24 23 20 19 18 17 14 15 12 11 12 10 6
19 16 12 9 9 9 7 8 10 12 10 12 13 8 12 15 16 15 15 15 15 14 15 13 11 11 10 11 12 14 16 19 21 20 22 27 26 25 24 23 22 21 21 20 18 17 16 15 13 13 12 10 8 6
18 12 10 8 8 5 4 -0 6 9 10 10 9 9 11 15 13 9 13 15 15 14 13 11 10 9 9 10 11 12 13 16 18 18 20 26 26 25 23 22 20 20 21 20 19 17 16 15 14 13 11 11 10 8
18 14 10 10 8 8 8 9 10 9 7 -1 6 12 13 11 10 11 13 12 13 12 11 10 9 9 9 10 11 12 13 15 18 19 21 22 26 28 26 23 21 21 21 20 19 17 16 16 15 14 12 12 9 9
19 13 9 12 13 9 6 7 6 3 3 7 12 11 8 7 2 11 12 11 11 9 8 8 8 9 9 10 11 12 14 16 19 21 22 23 24 26 28 28 27 23 21 20 20 21 20 18 16 13 11 9 10 12
18 13 14 11 11 11 9 4 1 6 9 11 8 7 8 10 10 10 8 7 5 7 8 9 10 9 9 11 13 15 16 17 16 15 16 18 19 21 24 25 26 25 25 25 24 22 21 19 16 12 10 10 11 11
17 14 11 11 9 8 8 9 8 8 11 10 10 11 11 10 9 6 6 7 8 9 9 8 8 8 9 11 12 14 15 17 18 17 17 18 19 21 24 24 23 24 24 23 22 23 22 17 14 10 8 8 8 6
14 12 12 10 10 7 5 4 7 10 8 9 5 10 10 9 8 6 6 7 8 8 9 10 10 10 11 11 11 12 13 16 18 19 21 21 21 21 22 23 23 23 22 21 19 16 15 10 8 8 8 6 5 1
15 14 13 12 10 4 4 6 6 8 6 7 7 2 6 7 9 9 8 8 9 10 11 11 10 10 12 13 15 15 17 18 18 20 21 20 20 21 22 22 22 21 19 18 16 14 13 12 10 9 8 6 3 4
8 7 5 7 7 7 5 6 6 7 5 7 6 4 4 7 9 8 6 8 10 10 10 12 14 16 17 17 17 17 18 18 20 21 21 20 20 19 19 19 18 17 16 16 15 14 12 10 8 6 5 4 4 6

GFSWCAN_sfc_30mbdewp_009.txt.gz
Dewpoint
38 37 37 38 41 39 38 37 37 37 36 35 34 34 33 35 35 37 37 41 36 35 37 40 38 36 40 37 36 39 39 39 39 34 33 33 33 31 30 28 30 29 29 29 30 28 25 32 33 32 33 34 33 36
37 37 38 39 40 39 37 38 37 37 37 36 35 34 33 34 34 36 34 38 42 36 37 41 42 45 43 41 37 40 40 38 39 36 37 36 34 33 30 26 31 29 29 29 29 29 32 34 34 35 35 34 34 35
38 37 36 39 40 39 36 38 37 36 36 36 36 35 35 33 33 35 34 36 38 36 38 43 40 44 46 45 46 39 42 42 41 43 40 38 35 37 33 30 31 32 33 33 34 32 33 34 35 35 34 34 35 36
37 37 36 38 40 37 35 37 37 37 37 37 36 35 33 35 34 35 35 35 37 34 32 39 44 43 47 47 46 45 44 45 45 44 40 37 35 38 34 34 34 35 36 34 34 34 34 35 34 34 33 34 37 35
36 37 36 38 40 38 35 35 37 35 37 35 36 35 36 35 34 36 35 35 36 34 32 38 42 45 46 46 45 45 44 43 43 41 39 37 38 37 35 37 34 35 34 34 30 35 35 34 34 34 33 33 33 31
37 37 37 38 39 40 36 35 37 36 38 35 35 37 36 35 34 34 32 42 41 38 34 35 43 43 44 45 45 44 44 44 44 41 39 40 40 39 36 33 32 32 33 34 33 35 34 35 34 34 32 32 31 30
37 37 37 38 39 40 38 35 34 35 36 37 35 35 35 35 36 33 30 40 41 42 35 35 38 44 46 45 45 44 45 44 43 41 40 40 39 42 37 32 33 35 37 36 37 35 35 34 34 33 32 31 30 29
38 38 37 38 39 40 38 36 36 35 37 35 35 35 37 39 38 35 36 39 40 38 38 35 36 39 45 41 40 44 42 43 43 41 41 39 41 40 36 37 37 37 37 38 37 36 35 35 33 33 31 29 28 27
39 38 37 38 39 40 36 37 37 36 35 36 35 37 40 36 32 37 40 41 42 38 33 37 33 32 44 41 42 42 44 39 43 40 40 40 38 35 36 38 39 39 38 38 36 35 34 33 33 32 31 30 28 27
39 38 38 38 39 40 38 37 36 36 36 34 35 34 32 35 39 40 39 36 36 37 37 36 37 36 40 40 39 40 41 38 35 37 39 37 36 38 37 37 38 40 38 36 35 34 34 34 33 32 31 30 28 27
39 39 37 38 39 40 38 36 36 36 33 34 31 31 35 38 39 36 31 31 33 33 38 39 35 35 41 36 37 40 36 37 33 35 34 34 33 35 37 34 35 37 39 36 36 35 35 34 33 32 31 30 28 25
39 39 38 37 39 39 37 37 36 34 32 33 34 37 36 34 32 30 31 32 33 33 38 37 37 37 40 41 39 38 35 35 30 33 33 31 34 36 34 32 33 36 38 36 34 33 34 34 33 32 30 28 26 24
41 40 38 38 40 38 38 37 36 35 38 35 32 30 30 32 28 28 26 28 31 32 34 36 37 38 39 39 37 36 33 31 33 31 30 32 35 34 29 30 34 34 35 34 33 33 34 33 32 30 28 26 25 23
41 41 38 38 40 38 37 37 34 37 33 28 27 25 28 27 27 28 28 29 32 33 34 35 36 36 36 36 36 32 33 32 29 27 29 34 34 30 29 32 34 33 32 32 32 32 32 31 30 30 28 26 23 22
41 39 37 39 40 37 38 35 36 36 31 27 27 25 26 28 30 31 32 32 33 35 34 35 35 35 34 34 33 33 30 27 28 29 34 35 31 30 31 32 33 32 31 30 31 31 30 30 28 28 27 25 23 22
41 37 37 39 37 38 35 35 35 36 30 29 27 26 27 27 28 29 29 30 34 32 35 35 34 33 33 34 30 29 28 27 32 32 33 31 30 30 30 31 31 30 29 29 29 29 29 27 27 26 25 22 21 21
39 37 35 35 37 34 34 33 33 26 26 25 25 28 27 27 27 27 25 26 29 31 31 32 31 31 32 31 29 32 31 32 30 31 31 30 29 29 29 30 30 29 28 28 28 27 27 26 24 23 21 20 19 18
36 38 37 36 36 31 30 32 28 25 23 25 25 26 27 27 26 25 26 28 28 30 30 29 29 29 29 28 30 31 30 30 30 29 29 29 28 28 29 29 29 28 28 28 27 27 25 24 24 22 21 20 18 16
37 38 37 37 33 28 26 28 29 22 23 24 25 25 24 25 25 26 26 27 28 28 29 30 28 28 30 29 27 27 27 28 27 28 29 29 28 27 28 29 28 27 28 28 27 26 25 24 22 21 19 17 16 15
37 39 38 35 30 26 21 24 27 23 21 23 23 23 22 23 23 23 24 26 28 27 27 25 27 27 26 26 27 27 27 28 27 27 28 30 29 28 28 28 28 27 27 28 27 24 21 20 20 19 18 17 15 15
37 36 34 31 29 27 24 23 22 22 22 21 22 21 21 21 21 22 23 27 27 24 23 25 27 25 24 23 23 24 25 25 26 27 27 28 29 30 28 27 27 27 26 26 24 22 21 19 19 19 19 17 17 15
33 32 26 27 24 23 24 25 23 23 21 20 20 19 18 19 20 21 22 22 23 26 26 24 23 20 16 15 16 18 20 23 26 26 28 28 28 29 29 27 27 26 26 26 24 23 20 19 19 19 16 15 13 14
31 26 23 22 19 18 17 21 21 20 17 17 17 16 17 19 21 20 19 21 23 25 23 21 20 17 15 16 18 19 21 21 22 23 24 25 26 28 29 28 27 27 26 25 25 22 20 19 18 15 15 14 14 15
24 24 20 19 18 12 14 16 16 17 17 15 14 8 14 17 18 19 18 21 22 22 21 18 15 13 13 15 14 13 15 17 18 19 22 22 24 26 28 29 27 27 27 25 22 21 19 17 17 15 14 14 14 11
24 21 18 13 13 10 10 12 12 13 11 14 12 10 13 17 16 16 16 18 20 19 20 17 14 13 12 11 12 13 14 14 15 17 18 20 21 24 25 27 28 27 25 23 21 20 19 18 16 15 15 15 11 9
21 19 15 13 11 10 8 5 9 10 12 11 12 12 14 16 12 6 13 19 19 19 19 17 16 13 11 12 12 12 12 13 14 14 15 18 20 23 24 25 24 24 25 23 21 20 18 17 16 16 15 14 12 10
20 18 12 10 10 8 7 8 9 10 8 4 7 11 14 7 6 11 15 16 17 18 18 16 14 13 12 12 12 12 13 13 15 15 16 17 19 20 22 23 24 26 27 27 23 20 18 17 16 18 18 16 13 11
20 15 10 11 11 11 6 7 7 3 5 8 12 6 5 5 0 13 17 17 18 14 13 13 12 12 12 13 13 13 13 14 15 17 18 19 20 22 23 26 29 28 27 27 25 20 18 17 18 20 19 15 15 15
19 15 14 11 11 10 8 5 3 7 8 12 9 8 9 13 15 14 13 11 11 10 10 11 13 14 13 13 13 13 14 15 14 13 13 13 16 21 25 26 28 28 27 27 26 21 20 22 21 20 17 16 15 14
19 17 14 11 9 8 11 11 11 10 12 13 12 12 12 13 14 11 10 10 9 11 13 12 11 11 11 11 11 12 14 15 17 16 14 14 17 22 24 25 26 26 26 25 24 25 26 23 21 17 14 13 13 12
16 16 14 12 12 10 7 6 8 10 11 11 9 11 12 11 11 11 9 10 11 10 11 12 12 12 12 11 11 11 10 13 17 18 19 19 20 22 23 25 25 25 25 24 24 22 18 15 14 13 11 10 10 8
17 17 14 13 12 6 6 8 9 10 9 9 10 6 8 10 10 13 10 9 11 12 13 12 11 12 14 15 15 15 15 16 16 17 18 19 21 22 24 24 24 24 23 19 18 16 16 14 13 11 11 10 9 8
10 10 9 9 9 8 7 8 8 8 7 8 8 6 7 8 9 11 8 10 11 12 11 12 14 16 18 18 19 19 19 19 18 19 21 22 22 23 23 22 21 20 18 17 17 16 15 14 13 12 11 10 10 10

GFSWCAN_sfc_30mbdewp_015.txt.gz
Dewpoint
41 41 40 40 40 38 39 41 39 38 38 39 37 37 36 35 35 34 33 38 37 35 35 35 37 40 40 38 33 38 37 38 37 34 32 31 31 33 32 31 31 30 29 29 31 28 22 30 36 33 32 35 35 34
42 42 41 40 39 39 38 40 38 35 37 39 37 35 37 37 34 35 32 34 37 35 35 37 36 37 37 40 43 40 39 38 38 36 34 35 33 33 33 29 32 30 30 29 29 27 29 32 34 35 35 35 34 35
43 42 41 40 39 39 39 39 41 39 36 39 37 35 37 34 35 35 34 35 35 34 33 34 35 40 41 41 45 40 40 41 40 42 38 37 34 35 30 32 34 33 32 31 32 32 32 35 35 35 34 33 34 38
42 43 42 41 38 39 38 39 40 41 37 34 36 36 36 35 36 37 35 35 35 33 29 32 41 42 46 46 46 45 44 45 44 42 38 37 34 38 34 36 35 35 35 34 33 34 35 35 34 34 33 37 36 38
41 42 41 42 38 39 39 39 40 42 39 36 37 35 36 36 37 36 36 36 36 32 29 32 37 40 46 46 45 45 44 43 42 40 39 36 38 37 36 35 34 35 33 33 33 35 35 35 34 34 33 34 33 33
42 42 42 40 41 40 38 38 40 41 34 35 36 38 36 37 37 37 29 40 37 36 31 27 41 44 45 45 45 44 44 44 43 40 39 40 40 37 35 33 33 34 35 35 35 35 35 35 34 33 32 32 32 31
43 41 42 41 42 41 39 38 39 41 37 37 37 36 36 37 39 33 29 37 41 37 31 29 35 44 44 44 43 43 44 43 43 41 40 40 39 40 37 32 34 36 37 37 37 36 35 34 34 32 32 31 31 29
43 41 40 40 41 40 40 38 39 39 37 37 37 36 37 40 38 34 35 39 39 34 33 28 34 40 45 42 40 44 43 44 43 41 41 39 39 39 34 37 38 39 39 38 38 36 36 35 32 31 30 29 27 26
43 41 40 40 41 41 39 39 40 37 37 36 37 39 40 38 33 37 41 40 39 34 29 31 33 33 44 41 42 42 43 38 41 39 38 40 36 34 37 39 39 38 38 38 36 35 34 33 32 30 29 28 26 25
43 40 40 39 40 42 38 39 40 38 36 36 37 32 32 34 38 39 38 34 32 34 33 31 39 36 41 40 39 39 41 37 35 38 40 37 34 38 33 32 32 31 33 36 36 35 34 33 32 30 29 28 27 25
43 41 40 40 41 42 38 39 39 37 35 33 30 29 34 38 37 35 31 29 31 30 35 36 39 36 41 35 37 39 36 37 32 34 33 32 34 31 31 30 31 32 34 35 36 37 36 35 33 31 30 29 28 25
43 41 41 40 41 42 38 40 38 36 33 32 34 37 37 34 32 28 28 31 30 31 37 37 37 39 39 41 36 37 34 35 29 34 32 28 33 31 31 30 32 33 34 34 35 37 36 35 34 32 31 31 28 25
44 42 41 41 41 41 38 40 38 36 36 37 32 29 29 31 25 26 26 30 31 32 34 35 35 38 38 39 36 34 30 29 32 31 28 30 31 30 30 30 31 32 33 33 33 34 35 35 34 33 30 27 23 21
43 40 42 41 42 40 39 40 38 34 33 27 25 23 25 25 26 26 29 30 32 32 33 35 36 36 36 35 34 31 32 32 27 26 27 30 30 30 29 29 29 30 30 33 32 33 34 35 35 33 29 25 24 24
42 42 41 41 42 41 40 38 34 36 29 25 26 21 24 28 29 31 32 32 33 34 34 35 35 36 33 33 33 32 29 26 26 26 29 29 30 29 29 28 29 30 29 29 31 32 32 33 32 31 30 28 27 28
43 42 41 41 40 39 38 35 35 35 28 26 25 24 27 26 27 27 28 30 33 31 34 34 33 33 33 31 30 27 26 25 27 28 29 30 28 29 28 28 28 29 29 28 29 30 30 30 31 30 29 28 24 21
42 39 40 39 39 37 34 33 33 29 26 24 24 27 28 28 27 27 26 27 29 31 31 32 30 30 33 31 28 29 28 28 28 29 28 27 27 28 28 28 28 28 28 28 28 28 28 28 26 24 23 22 21 20
39 40 39 38 36 33 31 33 29 26 23 24 23 26 27 27 27 26 27 27 28 30 31 30 29 29 29 29 28 28 28 28 28 27 27 26 27 28 28 28 29 28 27 28 27 26 26 26 25 23 22 21 19 18
39 39 40 39 36 30 26 27 28 22 23 25 25 25 25 26 26 25 25 26 28 28 27 29 27 27 28 29 28 28 27 26 25 25 25 26 27 27 27 28 29 28 27 27 28 27 26 25 24 22 20 19 18 17
41 40 40 40 33 24 20 25 27 24 21 22 24 24 24 24 23 23 22 23 25 25 22 23 25 28 29 27 27 26 26 25 24 21 20 24 24 26 26 27 28 27 27 27 27 27 24 23 22 21 19 18 17 17
40 40 38 35 31 27 24 24 22 24 24 21 23 22 21 22 21 20 21 23 23 23 19 22 24 26 26 24 23 22 21 22 18 18 18 19 23 23 25 25 27 27 27 27 26 26 25 22 22 20 20 19 17 17
35 36 32 32 26 23 22 26 23 24 20 21 20 21 18 17 19 19 20 20 20 20 23 25 25 25 23 18 16 18 15 16 17 20 21 21 20 21 21 21 23 24 26 26 26 26 25 24 21 20 19 18 18 18
35 33 29 28 25 24 20 23 19 21 16 18 18 14 15 17 19 21 16 18 18 20 24 23 22 19 19 16 16 15 16 15 13 14 15 17 18 19 20 22 23 23 23 24 26 26 26 24 22 19 18 17 17 19
33 30 26 24 24 19 19 17 20 20 19 16 14 9 14 17 19 17 13 16 20 22 22 21 19 17 14 15 14 14 14 17 15 15 16 15 14 15 18 19 20 20 21 23 26 26 26 22 22 19 17 17 19 20
27 24 24 19 18 13 9 14 15 16 13 14 13 10 13 16 12 12 11 11 18 22 21 20 18 16 17 15 14 15 15 14 11 11 13 15 15 16 16 16 16 17 20 23 25 25 25 23 21 18 17 18 19 17
23 21 20 17 14 11 9 10 12 12 13 12 12 13 13 13 8 -2 7 12 16 19 20 20 19 18 17 16 15 14 14 14 14 13 13 13 14 14 13 14 16 16 19 20 24 25 25 23 22 18 17 19 20 16
20 19 20 19 13 13 12 11 13 12 10 6 11 10 11 0 -4 1 11 16 17 18 19 20 20 18 16 15 15 15 14 12 12 12 13 13 14 15 15 14 13 13 15 17 18 23 25 24 23 21 22 22 21 16
21 16 17 13 10 12 6 6 6 3 6 11 10 5 1 -3 -4 5 12 16 17 16 15 15 15 15 15 13 10 11 11 12 12 11 12 13 14 14 14 15 16 17 18 19 20 20 25 25 24 23 23 22 22 17
16 14 12 10 9 8 7 2 1 7 11 12 3 0 4 10 13 12 13 13 12 13 13 12 10 8 10 11 11 11 11 11 11 10 9 9 9 10 11 14 16 17 18 21 22 24 25 26 25 24 24 22 20 20
16 16 12 10 9 13 10 11 12 11 12 13 12 11 12 11 11 13 12 10 9 8 8 7 8 10 10 10 10 9 9 10 11 11 9 9 9 10 11 13 15 17 20 21 23 25 27 30 27 25 21 19 18 18
18 16 12 11 11 11 9 8 9 11 10 10 9 9 8 9 9 10 11 10 9 7 9 9 9 8 9 10 9 10 10 10 10 10 11 13 13 14 15 16 16 17 19 20 23 25 27 24 21 19 18 17 18 16
17 16 14 13 11 7 8 8 9 9 9 8 8 7 7 8 7 8 8 8 8 9 10 10 10 11 9 10 11 12 16 16 16 17 17 16 15 15 15 15 15 17 19 22 24 25 21 18 17 17 16 16 14 14
14 13 12 10 9 9 8 8 8 7 7 7 7 7 6 7 7 7 8 7 8 9 10 10 10 10 12 13 14 15 14 14 15 20 21 22 22 20 17 17 19 21 22 20 19 19 18 17 16 15 14 14 14 14

GFSWCAN_sfc_30mbdewp_018.txt.gz
Dewpoint
41 41 42 41 40 40 40 40 41 40 35 35 38 36 35 37 36 34 32 36 33 34 33 35 35 37 39 39 33 36 35 38 37 33 31 31 30 32 32 31 32 30 29 29 30 27 22 31 36 32 32 35 35 34
42 42 43 42 41 40 40 39 40 41 39 37 39 37 36 38 34 36 32 34 37 32 30 37 36 36 36 38 40 40 36 37 37 34 33 35 32 33 32 26 32 30 29 29 30 28 29 31 33 35 35 35 35 35
42 43 43 42 41 41 40 39 39 40 42 38 35 34 36 37 37 34 34 35 34 32 30 31 24 25 33 36 37 41 40 40 39 40 37 37 32 34 30 30 33 33 33 32 31 32 32 32 33 35 34 33 33 36
43 44 43 42 42 41 40 40 39 40 41 41 36 36 36 35 36 38 36 36 34 30 25 25 37 36 39 41 40 43 45 44 43 41 38 36 33 37 33 33 35 35 36 34 34 36 36 35 35 34 33 36 36 37
44 44 42 43 43 41 42 40 39 39 41 38 35 36 37 38 37 38 38 36 36 27 24 27 28 32 37 45 44 46 44 43 41 39 38 36 37 36 37 35 33 34 34 32 31 35 36 36 35 34 34 34 34 36
44 43 43 42 42 42 42 42 39 39 41 39 38 38 36 36 37 38 30 40 38 36 26 24 35 39 44 45 45 44 44 44 42 40 39 40 40 37 35 33 35 35 35 36 34 36 36 36 35 33 33 33 33 33
44 43 43 42 42 42 43 42 39 39 41 38 37 37 37 37 39 34 26 36 39 36 30 26 29 40 45 44 44 44 44 43 42 41 39 39 39 40 37 32 33 37 40 40 39 37 35 35 35 33 32 32 32 30
44 43 43 42 42 42 42 42 39 40 39 37 37 37 38 39 39 35 37 39 39 35 32 26 29 39 44 41 40 44 42 43 42 40 41 39 39 39 35 36 38 38 33 38 36 37 36 35 33 32 31 29 28 27
43 42 43 43 42 41 42 41 39 41 39 36 38 39 40 37 32 35 41 40 39 34 28 29 29 33 44 42 42 42 43 38 41 38 38 39 36 34 34 29 30 30 30 31 34 35 34 34 33 31 29 28 27 25
43 43 43 43 41 41 42 39 40 39 36 36 35 32 29 33 39 39 38 34 32 32 31 27 35 35 41 39 39 38 40 37 34 38 41 37 34 36 31 30 30 31 32 33 33 34 34 33 32 31 29 28 27 25
43 43 43 42 41 41 42 39 40 38 33 32 31 29 33 37 36 35 30 28 31 29 32 33 38 37 41 36 38 39 36 36 31 33 34 31 33 30 31 30 31 31 32 34 34 34 36 36 35 32 30 28 27 25
44 43 43 42 41 41 42 39 40 36 33 31 32 37 36 33 32 28 27 30 29 30 36 35 37 39 39 40 36 38 33 34 29 34 32 28 32 30 30 29 30 30 31 33 33 34 36 36 35 33 31 29 27 28
44 44 43 42 41 41 40 38 40 38 37 37 33 29 29 30 25 25 24 28 30 32 33 34 35 37 38 38 36 34 31 29 32 31 28 29 30 29 29 29 29 30 30 30 33 33 34 35 34 33 31 32 31 29
45 45 44 42 41 42 39 40 39 34 32 27 26 23 25 25 26 26 28 29 32 32 33 34 35 35 35 35 34 30 32 31 27 24 26 30 29 29 29 29 28 29 29 29 32 34 34 35 34 33 31 28 25 24
45 44 42 42 42 42 40 40 35 35 29 25 26 21 24 27 29 31 31 30 34 34 33 35 35 36 33 32 33 32 29 26 25 25 29 29 28 28 28 28 28 28 29 28 29 32 33 33 33 32 32 29 26 26
45 44 42 42 42 41 40 35 34 35 29 26 25 24 26 26 27 28 28 28 34 32 33 33 33 33 33 31 30 28 25 24 26 28 29 28 27 28 28 28 29 28 28 28 28 28 29 30 32 32 32 32 31 30
44 39 42 42 40 39 35 32 32 28 27 25 24 27 26 27 28 27 27 28 29 31 31 32 30 29 32 31 29 29 27 29 29 29 28 27 26 27 27 28 28 29 28 27 27 27 27 28 27 28 30 29 29 26
39 41 42 40 36 34 32 32 27 26 23 24 23 24 28 28 27 26 26 27 28 30 30 29 30 29 29 29 29 29 29 29 29 28 27 25 25 27 26 26 28 28 28 27 27 27 26 26 25 24 24 22 23 24
40 41 41 38 36 29 24 27 28 20 22 24 26 26 26 26 27 26 26 25 27 28 27 28 27 26 28 30 29 28 28 27 25 24 23 23 26 24 24 25 26 27 27 27 26 27 27 26 25 24 22 20 19 18
41 42 41 39 32 24 21 24 27 23 19 22 25 24 25 24 24 23 23 23 25 24 22 21 25 28 28 28 27 27 26 25 22 14 12 19 21 22 23 24 24 24 26 26 27 28 26 24 23 22 21 20 18 18
40 40 40 36 32 26 22 22 21 22 23 21 23 22 21 22 21 20 20 23 23 21 14 18 21 25 27 26 25 23 22 21 17 13 10 12 19 22 22 22 20 22 24 24 25 26 26 26 24 22 21 21 19 18
36 37 32 32 28 24 21 24 21 23 20 20 21 21 18 17 18 18 19 20 19 18 20 21 22 24 24 22 20 18 15 18 16 17 20 21 16 16 16 17 18 20 21 23 23 24 25 25 26 23 21 20 20 18
35 33 30 29 25 23 21 23 18 19 16 17 17 15 14 16 18 21 16 18 18 19 21 23 23 21 24 18 17 16 15 13 12 13 14 15 16 16 16 17 18 19 18 18 19 20 21 25 27 25 20 20 18 19
34 31 27 26 25 20 20 16 20 20 19 17 14 9 12 16 19 16 11 14 18 21 21 22 20 19 16 15 12 11 12 15 13 14 15 13 10 11 14 15 17 17 18 18 19 21 23 24 26 24 19 18 18 19
28 25 25 20 17 16 11 14 15 16 14 15 17 16 13 16 12 11 10 12 16 21 21 21 20 20 21 17 15 14 16 15 13 12 12 13 13 13 14 14 14 15 16 16 18 22 22 23 24 23 19 18 18 20
23 24 21 18 16 14 9 8 11 12 14 15 17 14 14 13 7 -2 4 12 15 19 21 21 21 20 19 18 17 15 15 15 14 12 12 13 13 12 11 12 12 13 16 18 18 16 18 20 23 23 21 19 22 21
22 20 20 18 15 13 12 12 14 12 11 13 11 11 11 1 -3 1 8 12 16 18 19 21 20 19 14 15 17 16 14 13 13 12 12 12 13 14 13 13 12 13 14 14 14 15 15 16 19 22 22 21 23 24
24 19 18 16 11 13 7 9 8 7 9 13 11 7 2 -1 -4 4 8 15 16 15 15 15 16 17 17 16 14 12 11 10 10 10 10 11 12 13 13 14 15 15 16 17 17 17 17 17 18 22 22 22 22 24
19 15 13 10 8 8 5 2 4 7 11 12 6 2 3 9 11 12 13 14 11 14 15 14 13 8 9 9 9 10 11 11 11 11 10 10 9 9 9 10 12 13 14 15 18 20 22 22 21 22 23 23 23 22
15 14 12 10 8 8 9 10 9 12 14 14 12 12 11 11 11 11 11 10 11 11 10 9 8 8 8 8 8 9 8 8 9 10 10 10 9 9 9 10 11 12 13 15 17 18 19 21 25 27 25 22 20 19
16 14 11 11 11 11 10 9 10 11 10 10 9 9 8 8 8 9 11 11 9 6 7 8 8 6 9 8 9 9 10 9 8 9 10 11 12 12 13 13 13 14 14 15 16 17 18 20 24 22 19 18 18 18
16 13 11 11 10 8 9 8 8 8 9 9 8 7 7 8 7 8 7 7 8 9 11 9 8 9 8 9 8 9 14 14 14 14 14 15 15 16 16 16 16 14 14 15 16 17 19 21 19 19 18 18 18 17
14 12 11 10 10 9 8 9 8 8 8 7 7 7 6 7 8 8 6 5 7 8 8 9 9 9 9 10 12 13 15 12 13 17 19 19 19 21 22 17 16 15 16 16 18 20 20 19 18 18 17 16 15 15

GFSWCAN_sfc_30mbdewp_021.txt.gz
Dewpoint
42 42 42 43 42 41 41 41 40 41 42 41 36 39 37 36 37 34 32 35 31 29 30 34 35 34 36 38 33 35 36 37 36 31 31 30 30 33 32 31 32 30 29 29 31 27 22 33 36 32 32 35 35 35
43 42 42 42 43 41 41 43 39 40 41 43 38 35 35 38 37 37 31 34 36 31 26 34 33 33 36 37 37 40 35 36 36 33 32 33 32 33 32 28 33 30 30 29 30 27 29 33 34 35 35 35 34 34
43 43 43 44 43 42 42 42 41 40 40 41 43 38 36 36 37 37 35 35 34 32 29 29 24 27 30 28 29 34 40 40 39 38 35 35 31 34 31 30 32 33 33 32 32 33 32 33 34 34 34 34 33 34
45 44 44 44 43 43 43 42 42 39 39 41 42 36 35 36 35 38 36 37 35 32 25 22 30 29 34 31 32 34 39 44 42 40 36 35 31 35 31 31 33 34 35 34 33 34 36 36 36 35 34 34 36 37
44 44 45 43 43 43 42 42 43 41 39 41 42 39 38 38 38 37 38 38 37 33 23 23 26 22 23 22 39 37 37 43 41 38 37 34 36 36 36 35 33 33 33 32 31 34 35 35 36 35 34 34 34 36
44 45 44 44 43 43 42 43 43 42 39 40 41 38 38 37 37 37 32 37 38 37 30 20 27 30 37 37 42 41 41 44 42 39 38 39 40 36 34 33 33 35 36 39 37 38 36 37 37 35 34 33 33 34
45 45 44 43 43 43 43 43 43 41 40 41 40 38 37 37 38 34 27 32 39 37 27 22 25 33 34 44 45 44 46 44 42 40 38 39 39 39 37 32 34 38 36 34 38 35 37 37 36 34 33 32 33 31
46 45 44 44 43 43 42 42 43 40 40 41 38 38 39 40 39 34 36 38 38 34 32 25 26 32 41 40 40 44 42 41 42 39 41 39 40 39 34 35 30 30 30 30 33 33 34 36 35 33 32 31 30 29
45 44 44 43 43 43 42 42 43 40 41 38 38 39 39 37 32 34 40 41 39 34 27 28 26 30 43 41 42 42 41 36 41 38 38 38 36 34 33 29 29 30 30 31 32 34 34 34 34 32 31 29 29 27
44 44 43 43 44 43 41 42 41 40 39 35 34 35 28 33 38 40 37 33 32 32 30 26 31 30 41 38 39 38 40 36 32 36 40 36 35 32 30 30 30 30 31 32 32 32 33 33 33 33 31 30 28 27
45 44 43 43 44 43 42 43 41 39 32 31 30 29 33 36 34 34 30 28 30 27 31 31 33 37 41 36 37 39 35 36 31 33 35 33 32 30 30 29 30 30 30 31 32 33 34 34 34 35 33 30 28 26
46 44 44 43 44 43 42 42 40 37 33 30 32 36 36 33 31 28 26 29 28 28 35 32 36 38 40 41 36 37 33 34 29 34 32 26 31 29 29 28 29 29 30 30 31 33 33 35 36 36 34 31 28 26
46 45 44 44 43 42 42 40 41 39 37 36 34 29 29 30 25 23 23 26 29 32 33 33 34 37 39 39 36 34 29 29 32 31 27 29 29 28 28 28 28 29 29 29 31 34 34 36 35 34 32 29 28 26
47 45 45 44 44 42 42 40 39 34 32 26 24 22 24 24 26 26 28 29 32 32 33 33 34 35 36 34 34 29 32 31 28 25 25 29 28 28 28 28 28 28 28 28 29 32 34 34 34 32 32 31 30 28
46 45 45 44 43 43 42 41 36 35 30 25 25 19 22 26 27 30 31 30 32 34 33 33 35 35 34 32 32 32 30 25 25 24 28 29 28 28 27 27 28 29 28 28 28 28 29 31 33 33 32 30 29 28
46 45 43 42 42 43 42 36 34 34 30 26 25 22 24 25 25 27 27 28 33 32 33 32 32 32 32 31 30 27 26 24 25 29 29 27 27 27 27 26 27 29 28 27 27 27 27 28 28 32 33 32 31 29
46 41 43 43 43 42 37 33 32 29 26 24 22 26 26 26 25 28 27 29 32 31 30 31 30 29 32 29 28 29 27 28 29 29 28 26 26 26 26 25 26 28 28 27 27 27 27 26 26 28 31 31 32 31
39 41 43 43 36 35 33 31 27 25 22 23 21 23 27 28 27 27 26 27 29 29 29 29 30 29 28 26 28 29 29 29 30 29 27 25 24 26 25 24 26 26 26 26 26 27 27 26 26 25 24 25 27 27
40 42 43 38 36 31 26 27 28 20 19 22 25 27 27 28 27 26 26 26 27 28 28 27 26 26 28 29 30 28 27 28 28 28 24 22 25 24 22 23 23 22 22 24 26 27 27 26 24 24 24 22 22 23
42 43 40 38 32 24 21 23 26 22 15 21 24 24 26 26 25 24 24 24 25 24 22 21 25 27 28 28 27 28 27 26 22 17 12 17 20 21 21 21 21 19 21 23 24 25 27 26 26 25 22 21 20 19
40 41 39 36 33 27 21 19 20 19 21 21 22 23 21 22 23 21 21 23 23 21 18 17 18 23 27 27 26 26 25 22 16 8 4 6 15 19 19 18 18 17 20 21 22 22 23 23 23 24 24 22 21 20
37 37 33 33 29 27 24 22 19 22 20 19 20 21 19 17 18 19 19 21 20 19 19 17 17 19 25 25 22 21 20 20 16 16 19 19 14 10 11 14 15 13 15 17 18 17 18 19 20 25 26 23 22 20
35 34 31 30 27 24 23 23 20 19 13 16 17 15 15 14 17 21 17 18 18 20 20 20 23 22 24 21 19 18 16 15 11 12 14 14 14 15 15 14 15 14 14 15 17 17 17 20 22 24 26 23 20 19
35 31 28 27 27 22 20 18 19 19 18 17 15 9 11 14 18 15 11 12 14 19 19 20 21 21 19 18 17 16 13 14 11 12 13 12 11 10 12 12 14 15 15 16 16 16 17 21 22 23 24 22 19 19
27 26 26 21 18 17 15 14 14 15 12 14 16 17 14 16 13 11 8 10 16 18 20 20 21 21 22 21 18 14 14 13 11 10 12 14 12 11 11 12 12 13 14 13 13 14 16 20 19 21 23 22 20 19
22 25 22 20 16 16 13 10 11 11 13 14 15 14 13 12 7 2 4 10 13 16 20 21 22 21 21 20 20 17 16 16 15 13 13 13 13 11 9 9 10 12 14 14 14 15 16 15 16 16 17 21 23 23
21 21 21 18 16 13 10 12 13 12 12 13 15 13 10 6 -1 1 8 12 12 17 20 22 22 22 20 19 19 18 15 15 14 13 12 12 13 14 12 11 11 12 14 14 15 14 13 14 14 14 16 19 21 22
23 20 19 17 13 12 8 10 9 8 9 14 11 6 11 4 -4 4 7 13 16 15 15 16 17 19 18 16 15 16 13 11 11 10 10 10 10 11 12 13 14 15 16 16 16 16 15 15 15 16 16 19 21 21
22 18 16 14 10 10 8 6 6 9 12 14 11 5 4 9 11 10 13 15 13 15 16 16 15 10 10 8 8 8 9 10 10 9 9 11 9 9 8 9 9 10 10 11 14 18 19 18 18 18 18 18 20 22
19 15 14 11 12 11 8 8 7 13 14 14 13 11 10 11 13 12 11 11 12 13 14 13 11 11 10 9 8 8 7 8 10 11 10 10 10 8 8 9 10 10 10 11 12 13 15 17 18 18 19 22 21 21
15 12 11 11 12 9 9 9 10 11 9 9 8 9 8 8 8 10 10 11 11 8 7 7 7 5 7 7 7 8 11 8 7 8 8 9 10 11 11 12 12 13 13 12 12 12 13 14 15 17 19 21 20 20
13 13 12 11 10 7 8 8 8 8 8 8 7 6 7 8 7 10 8 7 8 8 10 10 8 8 6 7 7 8 13 13 12 12 12 13 13 13 13 14 15 16 14 13 13 13 13 13 14 16 18 18 19 18
13 10 8 8 9 9 8 8 8 8 7 7 7 6 6 7 9 10 5 5 8 9 8 8 8 7 9 9 10 11 14 12 11 15 17 19 20 22 21 20 22 18 15 14 13 14 14 15 16 18 18 18 17 17

GFSWCAN_sfc_30mbdewp_024.txt.gz
Dewpoint
44 43 42 42 42 43 43 42 42 40 40 41 43 40 36 37 38 34 32 35 30 26 27 29 35 34 34 38 33 35 36 36 35 31 30 30 29 32 31 31 32 29 28 28 28 26 20 32 35 31 32 34 35 35
44 43 43 43 43 44 42 42 42 41 40 41 41 42 42 36 36 38 33 34 36 31 26 30 29 29 30 30 33 37 35 34 35 32 32 31 30 33 32 28 33 29 29 29 29 27 28 32 34 35 35 33 34 34
45 44 43 43 44 44 42 42 42 43 41 39 40 42 39 37 37 36 35 35 35 32 31 30 28 28 31 30 28 33 39 40 38 37 34 34 31 33 29 30 31 33 33 31 32 32 33 34 35 35 34 34 34 34
45 44 44 45 45 44 43 43 42 43 42 40 39 40 42 39 37 37 37 37 35 33 26 23 27 26 32 31 29 27 33 34 40 39 35 34 30 34 30 30 31 33 35 33 33 34 34 35 36 35 35 34 34 36
45 45 44 45 45 44 43 42 43 43 43 42 40 39 42 39 39 38 38 38 37 32 26 26 28 28 28 25 24 25 29 30 34 39 36 34 35 35 35 34 32 34 32 31 30 34 36 36 37 36 36 35 34 35
45 45 45 44 44 44 43 43 42 43 43 40 40 42 41 38 38 37 33 36 37 38 30 23 25 25 28 33 25 22 34 34 37 40 36 38 38 34 33 31 33 34 36 37 37 39 37 36 38 38 36 35 34 34
46 45 46 46 45 44 43 43 43 42 44 39 42 40 38 39 38 34 29 30 39 39 29 22 22 30 35 33 34 36 40 40 40 40 37 38 39 38 35 30 35 36 31 31 33 35 37 36 35 36 35 33 33 32
46 46 46 47 45 44 43 43 42 43 41 41 40 37 40 40 39 35 34 38 38 34 32 23 24 30 38 34 34 40 40 40 42 40 40 38 39 38 33 35 32 30 30 31 32 33 33 34 34 34 33 32 31 30
47 46 45 45 45 44 43 43 42 43 42 41 35 40 39 37 32 32 40 40 39 34 26 27 25 25 37 36 40 39 40 34 41 38 38 37 35 32 35 33 29 30 29 30 31 32 33 33 34 34 32 31 30 30
47 46 45 44 44 44 44 42 43 43 41 35 34 34 28 33 37 39 37 32 32 32 30 25 31 27 35 38 37 37 39 34 31 35 39 37 33 32 29 30 30 30 30 30 30 31 32 32 33 33 33 32 30 29
47 46 45 44 44 44 43 42 43 40 33 30 28 29 32 36 34 34 29 28 29 27 30 30 31 30 41 35 36 37 35 35 30 34 34 33 31 31 29 29 29 29 29 30 30 31 32 33 33 33 34 34 32 29
46 46 45 44 43 44 43 42 42 38 36 34 32 35 35 32 30 27 26 29 28 27 34 32 34 36 39 40 36 36 32 33 28 35 33 28 30 28 28 28 28 28 29 30 30 31 34 35 35 35 35 35 32 28
46 46 45 44 44 43 42 42 41 39 36 36 34 29 28 28 24 23 20 25 26 32 33 32 31 37 38 39 35 34 31 29 32 32 28 28 29 28 28 28 28 29 29 29 29 30 34 34 35 33 33 31 29 26
46 46 46 45 44 43 43 41 39 35 31 26 24 20 23 22 24 24 26 28 31 31 32 33 33 34 36 34 34 30 31 31 27 25 25 29 28 28 28 28 28 28 28 28 28 29 31 33 35 34 32 30 28 27
46 45 46 45 44 44 43 41 37 34 29 23 24 15 21 24 26 27 30 29 30 32 31 32 33 35 33 32 33 32 29 26 26 24 27 29 28 27 26 25 27 28 28 27 27 28 27 28 31 33 33 31 30 29
46 46 45 44 44 43 41 37 35 33 29 25 24 20 23 24 24 26 27 27 33 31 31 32 31 31 31 32 29 27 25 24 25 28 29 28 27 27 27 24 26 28 27 27 27 27 27 26 26 29 33 32 31 30
46 42 44 43 43 41 38 34 31 28 26 24 21 24 25 25 24 25 27 28 32 30 28 30 29 29 32 29 27 29 27 27 28 28 28 26 26 27 25 23 25 26 25 25 26 27 27 26 26 26 25 28 32 31
41 41 44 43 37 36 34 32 28 24 20 21 20 21 26 27 27 28 27 27 29 29 28 28 28 28 28 26 27 28 29 28 29 28 27 25 23 26 23 22 23 21 20 24 25 27 27 26 25 24 24 23 26 29
41 42 44 40 38 34 30 29 27 22 19 20 22 25 26 27 30 29 28 26 27 29 28 27 25 26 27 29 29 29 27 28 28 27 26 23 24 23 21 22 21 17 19 23 24 25 26 26 25 24 24 22 22 22
42 43 41 38 35 30 26 23 26 21 14 17 23 23 25 26 26 26 26 25 26 25 23 22 24 26 28 28 28 29 28 28 26 24 19 20 22 20 19 20 18 16 17 20 20 22 22 21 21 21 23 26 23 22
40 40 39 37 33 30 27 21 19 19 19 20 21 22 21 22 22 22 23 24 24 23 22 21 19 22 27 27 26 27 28 25 22 18 13 10 15 18 18 18 16 15 16 16 16 17 17 16 18 19 22 26 25 22
37 38 34 34 30 28 26 22 18 20 20 17 18 19 19 18 18 19 21 20 20 22 23 20 16 15 17 24 26 25 25 22 16 14 16 17 10 11 10 12 13 10 11 12 14 14 15 16 18 21 23 24 26 23
36 35 33 31 27 25 22 23 21 18 16 14 16 14 14 14 16 20 17 18 19 21 23 21 20 20 20 21 21 19 20 18 13 11 14 13 12 13 13 13 13 11 10 11 14 15 15 17 19 22 23 23 23 22
35 32 29 26 26 22 20 19 18 18 17 16 15 10 9 12 16 15 12 13 15 20 20 20 20 20 20 20 21 21 16 17 12 12 12 10 8 9 11 11 12 13 13 14 15 15 15 16 19 21 21 22 23 22
28 26 27 22 19 17 17 15 14 15 12 12 14 15 15 15 12 11 10 12 14 15 17 18 19 21 20 20 20 19 16 14 10 7 10 12 11 12 12 12 12 12 12 11 12 12 13 14 18 16 17 19 19 21
22 24 23 21 17 17 16 14 12 11 12 12 13 13 12 11 6 4 6 7 10 13 15 18 19 20 21 20 21 20 18 15 14 10 12 13 13 12 11 11 11 10 13 13 13 12 13 14 15 13 13 14 15 17
21 21 22 20 18 14 12 11 12 12 11 11 14 14 11 7 5 3 7 11 9 15 17 19 21 21 20 21 20 18 15 16 15 14 13 13 13 14 12 11 10 11 13 13 13 13 14 14 13 13 13 13 14 16
23 20 19 18 16 12 10 10 10 9 9 12 14 12 13 14 12 4 4 11 15 15 15 15 18 19 20 17 16 17 15 12 11 11 11 10 10 11 11 12 13 15 16 15 15 15 15 15 14 14 14 14 14 16
22 20 17 16 12 12 11 9 8 9 12 13 12 9 8 10 10 7 10 13 13 15 15 16 16 13 13 11 11 11 12 14 15 12 8 7 7 9 7 9 9 9 10 10 12 15 15 16 15 15 15 15 15 16
19 17 17 13 15 14 12 10 6 10 14 14 13 11 10 9 11 13 11 10 11 8 10 14 15 14 15 15 13 11 9 9 10 10 8 8 10 8 8 8 9 9 9 9 10 11 14 15 15 15 15 16 17 17
17 14 14 13 13 11 9 8 9 11 9 9 8 9 9 8 8 9 9 11 11 11 10 9 9 10 11 9 8 6 7 7 7 9 9 9 9 10 11 11 11 11 11 10 11 11 11 11 11 12 12 13 15 18
14 16 14 12 11 7 6 9 7 7 6 7 6 5 6 7 6 10 9 7 8 8 10 11 9 9 8 7 6 7 12 10 8 9 10 11 11 12 13 13 13 13 13 13 13 12 12 11 11 11 12 13 14 17
10 8 6 9 10 10 7 8 8 8 6 7 7 6 6 7 10 11 7 6 8 9 9 8 9 8 7 6 7 8 12 10 11 15 16 17 18 18 21 22 18 15 16 15 14 13 12 11 11 12 13 14 16 17

GFSWCAN_sfc_30mbdewp_030.txt.gz
Dewpoint
46 46 45 44 44 43 43 44 43 43 43 43 43 42 42 44 39 38 37 36 31 28 25 24 30 27 24 29 33 35 36 37 36 33 31 28 27 29 28 27 27 26 26 27 27 24 20 29 32 27 31 33 33 35
47 47 46 45 44 44 45 44 43 43 43 44 43 41 40 43 43 40 36 35 36 31 28 28 26 25 25 27 29 30 35 36 36 35 33 32 30 31 30 26 31 27 28 25 25 24 27 32 33 36 36 35 35 35
47 47 46 45 45 45 45 45 43 43 42 43 44 42 42 42 43 42 37 37 36 33 31 29 28 30 32 28 27 23 31 38 38 37 35 34 31 33 29 29 30 33 33 30 30 29 30 31 34 35 35 35 36 35
47 47 46 45 45 45 45 45 44 42 42 42 43 42 41 42 43 41 38 39 37 34 26 26 30 27 28 31 30 29 27 31 30 33 37 36 32 34 31 30 30 32 33 31 31 33 34 35 35 36 37 37 37 37
47 46 46 45 45 45 45 45 44 43 43 43 43 42 42 42 39 39 40 39 38 33 25 25 30 29 29 28 29 30 28 27 27 28 31 35 35 34 33 32 31 34 33 31 29 33 32 34 36 38 38 37 36 36
47 46 46 46 46 46 45 46 45 43 43 43 43 42 43 38 40 38 32 37 39 38 30 23 29 27 26 28 29 29 29 28 29 27 29 37 37 34 32 31 32 33 35 35 33 35 37 38 37 38 34 34 34 35
47 47 47 47 46 46 47 46 44 43 42 43 42 43 40 39 39 34 30 32 39 37 30 23 22 24 30 32 29 28 29 27 26 27 29 35 38 36 34 29 31 33 34 35 34 34 34 35 35 34 33 34 35 35
47 47 47 47 45 46 45 44 43 43 42 43 43 40 37 41 39 36 35 39 39 35 30 22 22 25 33 31 26 28 26 26 29 29 34 34 38 37 34 34 34 34 32 31 32 32 32 32 32 33 34 34 33 33
45 46 47 46 45 45 44 44 43 43 43 42 37 37 40 37 33 33 38 40 39 35 26 25 23 23 36 33 34 29 29 23 28 32 34 36 34 33 34 34 33 32 31 32 31 30 30 32 32 33 33 34 32 32
45 47 47 44 45 43 43 43 42 43 40 35 34 34 32 33 36 38 37 33 32 32 31 25 30 26 32 34 33 33 33 31 26 32 38 34 33 33 31 31 31 30 30 30 29 30 31 32 32 33 33 34 34 34
45 47 46 45 44 43 43 43 43 40 39 34 31 29 33 36 34 32 29 29 29 26 29 29 29 28 35 29 31 34 31 32 29 32 33 32 31 31 29 29 29 29 29 29 30 30 31 31 32 34 35 34 35 35
45 47 45 45 45 43 43 43 41 38 37 37 35 36 36 32 30 27 26 29 28 26 32 30 32 33 33 39 36 36 32 33 28 36 33 30 31 28 28 28 28 28 29 29 30 30 32 34 34 35 34 33 33 35
44 46 45 45 44 44 43 42 42 39 36 36 33 29 28 28 24 23 21 25 27 30 31 30 28 33 36 38 35 33 30 29 33 31 27 29 29 28 28 28 28 28 29 29 29 29 29 31 34 35 34 34 29 28
43 45 45 45 45 44 43 42 39 35 30 26 21 7 20 21 24 25 24 27 30 30 29 29 29 31 34 33 34 30 31 31 28 25 25 29 28 28 28 28 28 28 28 28 28 28 28 29 31 33 34 34 34 32
43 44 45 46 45 44 43 40 36 33 27 22 20 10 15 24 25 27 27 28 30 31 30 28 28 31 32 31 33 31 28 25 24 24 27 30 29 27 25 26 27 26 26 27 28 27 27 27 27 27 31 32 32 31
45 45 45 44 45 45 41 37 35 32 27 25 23 20 21 21 21 24 25 26 30 31 31 30 27 28 30 31 29 28 27 24 25 28 29 29 28 25 23 24 26 25 22 23 27 27 27 26 25 25 25 24 28 31
43 39 43 45 45 41 39 35 30 26 25 22 20 23 23 22 21 22 25 27 29 28 26 27 26 28 29 29 27 29 27 28 28 30 29 29 27 26 22 23 23 19 20 22 24 26 27 26 26 25 25 24 24 27
40 42 45 44 39 37 35 31 28 25 24 22 20 20 22 24 24 25 27 28 28 28 28 26 26 24 25 26 26 29 31 30 28 29 29 28 27 27 21 22 19 16 19 22 23 24 26 24 20 18 20 26 25 23
40 42 44 40 39 36 33 30 28 25 24 22 20 21 23 23 26 26 28 29 28 30 28 26 23 23 24 28 30 30 29 30 29 28 27 26 25 25 21 21 17 16 19 20 19 20 21 20 21 17 17 23 26 25
42 44 43 40 37 34 29 26 27 22 20 17 19 21 23 24 24 25 26 27 27 26 24 22 23 23 26 29 29 30 30 28 27 26 25 23 23 23 20 20 16 15 16 18 16 18 18 14 16 16 18 22 23 24
40 42 39 37 34 34 31 24 23 22 19 17 18 19 19 19 20 21 21 24 25 23 21 23 23 24 26 28 28 28 30 30 29 28 27 25 22 22 20 19 18 13 12 11 10 10 13 13 15 16 19 21 23 23
38 38 35 36 33 29 28 25 22 18 19 17 17 16 17 16 17 18 18 20 21 21 23 22 23 23 24 23 23 25 27 28 27 22 18 22 21 19 18 17 15 11 11 11 10 10 11 13 15 17 19 21 23 21
37 36 34 32 29 26 23 23 22 19 20 16 14 14 14 14 14 16 16 17 18 20 21 22 23 22 21 21 20 21 23 26 25 21 17 16 14 18 16 15 14 10 9 10 12 12 13 14 16 16 18 21 20 18
36 33 30 28 27 23 21 19 18 17 16 16 15 14 13 11 13 14 12 13 15 18 18 18 19 19 20 20 20 21 21 23 23 20 16 13 9 9 11 10 11 12 13 13 13 13 14 13 15 15 16 18 16 15
28 27 27 23 24 21 18 15 14 15 16 14 13 13 13 12 12 11 11 13 14 15 14 15 16 18 19 19 20 20 20 21 22 21 16 14 11 8 10 11 11 11 13 13 13 13 12 13 14 14 15 16 14 14
21 24 23 21 19 19 17 15 14 15 14 13 12 10 10 13 12 12 10 10 10 9 9 11 15 16 17 19 19 21 22 20 18 18 17 14 12 9 8 7 8 10 14 14 14 12 12 13 13 13 13 13 15 15
20 17 23 23 20 17 15 13 13 12 12 13 12 12 13 14 11 10 8 10 9 11 15 18 19 19 18 19 21 21 19 19 18 18 16 14 15 14 12 9 10 13 14 13 13 13 14 13 13 13 13 14 13 13
22 18 17 18 18 16 17 15 14 14 13 14 14 14 14 12 13 16 13 10 12 13 14 15 16 18 20 21 21 20 18 16 14 14 15 15 13 14 14 15 14 16 14 14 14 14 14 14 14 14 14 13 14 14
22 20 18 16 15 16 17 17 19 19 17 14 12 12 13 13 15 14 10 10 11 12 11 10 11 15 16 17 15 16 16 16 17 17 16 15 14 13 10 11 12 12 13 14 16 17 15 15 14 14 14 15 15 15
19 20 18 16 16 16 17 16 16 12 12 14 13 13 13 13 13 11 11 10 10 11 12 14 13 12 11 12 13 15 14 14 18 18 16 14 12 10 9 10 11 11 10 11 12 12 14 15 15 15 15 14 13 13
20 18 17 16 15 14 14 8 8 10 9 9 8 11 11 11 10 10 10 12 13 14 12 11 11 11 12 11 12 12 13 14 14 14 14 12 10 10 10 11 11 11 11 12 12 12 11 11 12 12 12 11 11 13
17 17 16 12 11 6 5 10 8 9 7 8 10 5 7 8 10 12 10 8 9 9 11 13 11 11 10 11 12 13 14 10 9 8 8 11 11 11 11 11 12 11 12 12 13 12 11 10 11 11 11 10 10 10
10 9 7 11 12 11 7 9 8 9 6 7 7 6 6 8 10 12 7 5 7 8 8 8 9 9 9 9 9 9 12 10 11 14 15 16 16 16 15 15 15 16 15 15 15 14 12 11 11 11 10 10 10 11

GFSWCAN_sfc_30mbdewp_033.txt.gz
Dewpoint
46 46 45 45 44 44 44 45 44 43 43 43 43 41 41 41 42 40 37 37 31 28 27 26 24 22 19 23 28 35 35 37 37 33 29 28 24 25 23 25 26 25 24 24 23 22 20 27 34 30 32 33 34 35
47 47 46 45 45 44 44 45 44 43 43 43 43 43 42 42 42 42 36 36 36 33 29 30 29 27 25 24 26 30 34 35 37 34 31 29 25 27 26 23 27 24 25 23 24 24 26 29 29 34 35 35 35 36
48 47 47 47 45 45 45 45 45 44 42 43 43 43 42 41 42 43 39 38 37 34 29 27 27 29 30 31 28 20 25 34 35 34 37 35 30 28 26 26 28 28 29 28 27 27 28 29 34 34 36 36 36 36
47 47 46 46 46 45 45 45 45 44 43 43 43 42 42 41 42 41 38 37 36 33 27 24 30 28 28 30 29 27 24 28 29 32 33 36 32 30 27 28 28 29 32 30 28 29 33 32 31 33 36 37 37 38
47 47 46 46 46 46 46 45 45 44 43 43 43 42 42 43 39 40 39 38 39 33 26 27 30 29 28 27 28 28 27 26 26 27 30 32 34 33 33 32 29 32 31 30 28 29 29 30 34 36 37 38 36 35
47 47 46 46 46 46 46 46 46 44 43 42 42 42 42 40 40 38 31 38 39 38 31 23 28 27 25 26 27 28 28 27 26 25 26 29 36 37 30 27 27 30 32 32 30 34 35 36 38 37 37 36 35 35
47 47 46 47 47 46 46 47 45 43 42 42 42 43 40 37 41 34 31 35 39 38 29 24 25 24 25 31 30 29 28 29 27 27 23 25 31 32 35 27 29 31 32 34 37 36 35 35 35 36 34 33 34 34
47 46 46 46 46 46 45 44 43 43 43 43 43 40 36 41 39 35 37 39 39 35 32 23 23 26 31 31 27 28 26 27 26 22 23 23 26 31 32 34 32 33 34 35 34 33 33 32 31 32 33 34 34 33
46 45 46 47 45 45 45 43 43 43 43 41 37 37 40 37 33 34 38 40 40 35 27 26 24 26 35 33 33 28 27 21 22 23 22 23 27 29 35 34 34 34 33 33 33 32 31 31 32 33 34 34 34 33
44 44 46 46 45 44 43 43 43 43 41 36 32 31 32 32 36 37 37 33 32 32 31 25 32 27 32 33 31 31 29 29 22 23 29 30 31 36 35 32 34 32 31 31 31 31 31 33 34 34 34 35 35 35
43 44 46 45 45 43 43 43 42 40 38 35 33 30 33 36 34 32 29 29 30 27 30 30 30 28 35 28 30 33 31 32 28 31 32 31 32 34 32 30 30 30 30 30 30 31 31 32 33 34 35 36 34 34
43 45 46 45 45 43 43 42 41 39 38 37 35 35 35 32 31 28 28 30 29 28 32 30 30 31 34 36 31 33 31 31 28 33 31 30 31 30 29 29 28 29 29 30 30 31 31 33 34 34 35 34 32 30
44 46 45 45 45 44 43 42 42 39 37 36 32 29 29 29 25 23 21 24 25 31 30 29 27 30 34 37 34 33 30 30 34 31 28 30 30 29 29 29 28 29 29 29 29 30 30 30 33 34 34 35 35 31
44 45 44 45 44 44 43 42 39 35 32 28 24 12 24 23 25 26 26 27 31 31 29 28 27 29 33 31 33 30 32 32 28 26 26 32 30 29 29 29 28 28 28 28 29 29 29 29 30 32 34 34 34 33
41 44 44 45 45 45 44 40 36 35 31 28 25 19 18 25 28 29 30 28 30 31 30 28 28 29 29 31 32 31 29 26 24 25 31 33 30 28 28 28 27 26 26 27 28 28 27 27 27 27 27 27 31 32
44 44 44 44 45 45 41 38 37 34 30 28 26 24 24 23 26 27 28 28 31 31 30 30 27 27 28 30 29 29 28 26 28 31 32 30 29 26 24 26 26 23 20 22 26 27 27 26 26 26 26 25 25 28
44 41 43 44 45 42 39 37 34 29 28 25 25 26 26 26 24 24 22 24 29 28 26 27 25 27 29 27 28 31 29 32 32 33 31 31 28 24 22 23 23 18 19 20 22 24 26 25 21 19 20 26 27 25
41 43 45 44 40 38 35 34 31 28 26 27 24 27 23 23 24 23 24 26 27 28 28 26 27 24 25 26 27 32 34 34 32 30 31 29 27 25 22 22 19 16 19 20 22 23 24 22 18 15 16 19 26 26
42 44 43 41 39 36 34 32 31 28 27 27 25 24 23 24 25 25 25 26 29 30 29 27 24 23 24 27 30 33 33 32 32 30 28 28 28 27 22 21 17 16 20 20 19 18 18 18 19 16 17 20 21 24
42 44 42 40 38 35 31 29 29 25 24 23 22 23 24 24 25 25 26 27 26 25 25 23 23 24 25 26 32 32 32 30 29 31 31 26 25 26 24 22 17 16 17 19 17 18 16 14 15 15 17 21 21 21
40 42 40 38 36 35 33 28 26 25 24 21 22 21 22 22 22 24 24 25 24 22 22 24 24 24 25 26 28 29 28 30 31 33 31 28 24 24 24 23 21 15 13 11 9 9 13 11 14 15 17 19 22 22
38 38 36 37 34 32 29 28 26 22 21 21 20 19 20 20 21 21 21 20 21 22 24 22 23 24 24 25 25 26 26 27 28 28 24 25 24 23 23 22 20 14 13 14 12 10 10 11 13 15 17 17 22 21
38 36 34 33 30 28 25 25 24 23 22 21 19 17 18 17 18 18 17 19 21 22 23 23 24 25 24 23 23 22 22 23 24 25 25 23 21 24 23 22 20 18 16 16 15 15 16 14 15 16 15 19 20 17
37 33 30 27 27 24 22 21 21 20 19 18 18 16 17 17 16 16 15 18 20 19 19 20 21 19 18 21 20 21 23 24 24 25 22 19 17 14 18 20 13 17 17 16 16 16 16 13 14 15 15 18 18 17
28 27 27 23 27 22 20 18 17 17 16 18 16 16 16 15 15 14 13 17 20 18 20 18 17 17 17 17 19 21 22 22 22 23 23 19 17 11 11 12 11 11 16 15 15 15 16 16 15 16 16 16 16 16
21 24 24 22 21 20 19 15 15 15 16 15 15 14 13 15 14 14 16 18 17 16 13 14 16 17 17 18 18 19 22 22 22 22 23 20 17 16 14 11 9 11 15 15 17 17 16 15 15 15 15 14 15 16
20 21 24 24 20 19 17 15 15 15 15 15 15 13 14 14 15 16 14 14 13 16 16 17 17 17 16 19 21 22 23 21 22 21 18 18 19 17 18 16 13 15 16 16 17 16 15 15 15 15 15 15 15 15
22 21 19 20 20 19 17 16 15 15 15 18 19 15 16 17 16 18 18 17 14 16 16 17 18 18 17 18 22 23 22 20 19 17 18 19 17 17 18 18 17 17 17 17 16 16 15 15 15 15 15 15 15 15
22 21 18 17 17 18 18 17 17 17 18 17 18 19 18 16 18 17 18 15 15 14 14 16 19 20 18 18 19 19 21 20 18 17 18 18 19 19 17 16 16 18 18 18 18 19 17 16 16 16 16 15 16 17
20 21 19 17 17 17 18 19 20 20 18 19 17 15 14 15 16 18 16 15 14 15 16 18 19 20 17 17 17 18 18 19 19 20 19 19 20 17 12 12 13 14 14 14 14 14 15 17 16 16 15 17 16 16
22 21 19 18 17 18 18 12 12 11 12 12 13 13 14 14 13 14 13 15 16 17 18 18 18 18 16 16 16 15 15 18 17 18 20 17 14 13 13 14 15 14 13 13 14 14 14 14 14 14 13 13 13 14
19 19 18 15 14 11 8 11 13 13 13 11 12 11 11 11 11 13 15 12 12 12 15 17 16 16 16 15 15 16 16 14 12 13 14 17 15 14 13 13 13 13 13 13 13 14 14 13 13 12 12 12 12 11
13 14 11 13 14 12 10 11 11 11 9 10 10 11 11 11 10 13 11 8 10 11 10 11 11 10 10 9 11 12 13 11 12 15 15 15 14 14 14 14 15 16 15 15 15 15 14 14 13 12 12 12 11 11